Temp
10 10 10 10 10 10 10 10 10 11 11 11 11 11 11 11 11 11 10 10 10 10 10 10 10 9 9 9 9 9 9 9 9 9 8 8 8 8 8 7 7 7 7 6 6 6 6 6 6 6 6 6 6 5 5 5 5 5 5 5 4 4 4 4 4 3 3 3 3
10 10 10 10 10 10 10 10 10 11 11 11 11 11 11 11 10 10 10 10 10 10 10 10 9 9 9 9 9 9 9 9 9 8 8 8 8 8 7 7 7 7 6 6 6 6 6 6 6 6 6 6 5 5 5 5 5 5 5 4 4 4 4 4 3 3 3 3 3
10 10 10 10 10 10 10 10 11 11 11 11 11 10 10 10 10 10 10 10 10 10 10 10 9 9 9 9 9 9 9 9 9 8 8 8 8 7 7 7 7 7 6 6 6 6 6 6 6 6 6 5 5 5 5 5 5 5 4 4 4 4 4 3 3 3 3 3 2
10 10 10 10 10 10 10 11 11 11 11 11 11 10 10 10 10 10 10 10 10 10 10 10 9 9 9 9 9 9 9 9 8 8 8 8 7 7 7 7 7 6 6 6 6 6 6 6 6 5 5 5 5 5 5 5 4 4 4 4 4 4 3 3 3 3 3 2 2
10 10 10 10 10 10 11 11 11 11 11 11 11 10 10 10 10 10 10 10 10 10 10 10 9 9 9 9 9 9 9 8 8 8 8 8 7 7 7 7 6 6 6 6 6 6 6 6 5 5 5 5 5 5 5 4 4 4 4 4 4 3 3 3 3 3 2 2 2
10 10 10 10 10 10 11 11 11 11 11 11 11 11 10 10 10 10 10 10 10 10 10 9 9 9 9 9 9 9 9 8 8 8 8 7 7 7 7 6 6 6 6 6 6 6 6 5 5 5 5 5 5 5 4 4 4 4 4 4 3 3 3 3 3 2 2 2 2
10 10 10 10 10 10 11 11 11 11 11 11 11 11 10 10 10 10 10 10 10 10 10 9 9 9 9 9 9 9 8 8 8 8 8 7 7 7 7 6 6 6 6 6 6 6 5 5 5 5 5 5 5 4 4 4 4 4 4 3 3 3 3 3 2 2 2 2 2
10 10 10 10 10 10 11 11 11 11 11 11 11 10 10 10 10 10 10 10 10 10 10 9 9 9 9 9 9 9 8 8 8 8 7 7 7 7 6 6 6 6 6 6 6 5 5 5 5 5 5 5 4 4 4 4 4 4 3 3 3 3 3 3 2 2 2 2 2
10 10 10 10 10 10 11 11 11 11 11 11 10 10 10 10 10 10 10 10 10 10 9 9 9 9 9 9 9 8 8 8 8 8 7 7 7 7 6 6 6 6 6 6 5 5 5 5 5 5 5 4 4 4 4 4 3 3 3 3 3 3 3 2 2 2 2 2 2
10 10 10 10 10 10 10 11 11 10 10 10 10 10 10 10 10 10 10 10 10 10 9 9 9 9 9 9 8 8 8 8 8 7 7 7 7 6 6 6 6 6 6 5 5 5 5 5 5 5 4 4 4 4 4 3 3 3 3 3 3 3 2 2 2 2 2 2 2
11 11 10 10 10 10 10 10 10 10 10 10 10 10 10 10 10 10 10 10 10 9 9 9 9 9 9 8 8 8 8 8 8 7 7 7 7 6 6 6 6 6 5 5 5 5 5 5 5 4 4 4 4 4 4 3 3 3 3 3 3 2 2 2 2 2 2 1 1
11 11 10 10 10 10 10 10 10 10 10 10 10 10 10 10 10 10 10 10 10 9 9 9 9 9 9 8 8 8 8 8 7 7 7 7 6 6 6 6 6 5 5 5 5 5 5 5 4 4 4 4 4 4 3 3 3 3 3 3 2 2 2 2 2 2 1 1 1
11 11 10 10 10 10 10 10 10 10 10 10 10 10 10 10 10 10 10 10 9 9 9 9 9 9 8 8 8 8 8 7 7 7 7 7 6 6 6 6 6 5 5 5 5 5 5 4 4 4 4 4 3 3 3 3 3 3 3 2 2 2 2 2 2 2 1 1 1
11 11 10 10 10 10 10 10 10 10 10 10 10 10 10 10 10 10 10 9 9 9 9 9 9 8 8 8 8 8 7 7 7 7 7 6 6 6 6 6 5 5 5 5 5 5 5 4 4 4 4 4 3 3 3 3 3 3 2 2 2 2 2 2 2 1 1 1 1
11 11 11 10 10 10 10 10 10 10 10 10 10 10 10 10 10 10 10 9 9 9 9 9 9 8 8 8 8 7 7 7 7 7 6 6 6 6 6 5 5 5 5 5 5 5 4 4 4 4 4 3 3 3 3 3 3 2 2 2 2 2 2 2 1 1 1 1 1
11 11 10 10 10 10 10 10 10 10 10 10 10 10 10 10 10 10 10 9 9 9 9 9 8 8 8 8 7 7 7 7 7 6 6 6 6 6 5 5 5 5 5 5 5 4 4 4 4 4 4 3 3 3 3 3 2 2 2 2 2 2 2 2 1 1 1 1 1
11 11 10 10 10 10 10 10 10 10 10 10 10 10 10 10 10 10 9 9 9 9 9 8 8 8 8 7 7 7 7 7 6 6 6 6 6 5 5 5 5 5 5 5 5 4 4 4 4 4 3 3 3 3 3 2 2 2 2 2 2 2 2 1 1 1 1 1 1
11 11 10 10 10 10 10 10 10 10 10 10 10 10 10 10 10 10 9 9 9 9 8 8 8 8 7 7 7 7 7 6 6 6 6 6 6 5 5 5 5 5 5 5 4 4 4 4 4 3 3 3 3 3 2 2 2 2 2 2 2 2 1 1 1 1 1 1 0
11 11 10 10 10 10 10 10 10 10 10 10 10 10 10 10 10 9 9 9 9 8 8 8 8 7 7 7 7 7 6 6 6 6 6 6 5 5 5 5 5 5 5 4 4 4 4 4 3 3 3 3 3 2 2 2 2 2 2 2 2 1 1 1 1 1 1 0 0
11 11 10 10 10 10 10 10 10 10 10 10 10 10 10 10 9 9 9 9 8 8 8 8 7 7 7 7 7 6 6 6 6 6 6 5 5 5 5 5 5 5 4 4 4 4 4 3 3 3 3 3 2 2 2 2 2 2 2 2 1 1 1 1 1 1 0 0 0
10 10 10 10 10 10 10 10 10 10 10 10 10 10 9 9 9 9 9 8 8 8 7 7 7 7 7 7 6 6 6 6 6 6 5 5 5 5 5 5 5 4 4 4 4 4 3 3 3 3 3 2 2 2 2 2 2 2 1 1 1 1 1 1 1 1 0 0 0
10 10 10 10 10 10 10 10 10 10 10 9 9 9 9 9 9 8 8 8 8 7 7 7 7 7 7 6 6 6 6 6 6 5 5 5 5 5 5 4 4 4 4 4 4 4 3 3 3 3 2 2 2 2 2 2 1 1 1 1 1 1 1 1 1 0 0 0 0
10 10 10 10 10 10 10 10 9 9 9 9 9 9 9 9 8 8 8 8 7 7 7 7 7 6 6 6 6 6 6 5 5 5 5 5 5 5 4 4 4 4 4 4 4 3 3 3 3 2 2 2 2 2 2 1 1 1 1 1 1 1 1 1 1 0 0 0 0
10 10 10 10 9 9 9 9 9 9 9 9 9 9 9 8 8 8 8 7 7 7 7 7 6 6 6 6 6 6 5 5 5 5 5 5 5 4 4 4 4 4 4 4 3 3 3 3 2 2 2 2 2 1 1 1 1 1 1 1 1 1 1 1 1 0 0 0 -0
10 10 10 9 9 9 9 9 9 9 9 9 9 8 8 8 8 7 7 7 7 7 6 6 6 6 6 6 6 5 5 5 5 5 5 5 4 4 4 4 4 4 4 3 3 3 3 2 2 2 2 2 1 1 1 1 1 1 1 1 1 1 1 1 0 0 0 0 -0
10 10 9 9 9 9 9 9 9 9 9 8 8 8 8 8 7 7 7 7 7 6 6 6 6 6 6 5 5 5 5 5 5 5 4 4 4 4 4 4 4 4 3 3 3 3 2 2 2 2 2 1 1 1 1 1 1 1 1 1 0 0 0 0 0 0 0 -0 -0
10 9 9 9 9 9 9 9 9 8 8 8 8 8 7 7 7 7 7 7 6 6 6 6 6 6 5 5 5 5 5 5 5 4 4 4 4 4 4 4 4 3 3 3 3 2 2 2 2 2 1 1 1 1 1 0 0 0 -0 -0 -0 0 0 0 0 0 -0 -0 -1
9 9 9 9 9 9 8 8 8 8 8 8 8 7 7 7 7 7 6 6 6 6 6 6 6 5 5 5 5 5 5 5 4 4 4 4 4 4 4 3 3 3 3 3 2 2 2 2 2 1 1 1 1 0 0 0 -0 -0 -1 -1 -1 -1 -1 -0 -0 -0 -0 -1 -1
9 9 9 9 9 8 8 8 8 8 8 7 7 7 7 7 7 6 6 6 6 6 6 5 5 5 5 5 5 5 5 4 4 4 4 4 4 4 3 3 3 3 3 3 2 2 2 2 1 1 1 1 1 0 0 -0 -1 -1 -1 -1 -1 -1 -1 -1 -1 -1 -1 -1 -1
9 9 9 9 8 8 8 8 8 7 7 7 7 7 7 7 6 6 6 6 6 6 5 5 5 5 5 5 5 4 4 4 4 4 4 4 4 3 3 3 3 3 3 2 2 2 2 1 1 1 1 1 0 0 -0 -0 -1 -1 -1 -2 -2 -2 -1 -1 -1 -1 -1 -2 -2
9 9 9 8 8 8 8 8 7 7 7 7 7 7 6 6 6 6 6 6 6 5 5 5 5 5 5 4 4 4 4 4 4 4 4 3 3 3 3 3 3 3 2 2 2 2 2 1 1 1 1 1 0 0 -0 -0 -1 -1 -1 -2 -2 -1 -1 -1 -1 -1 -1 -2 -2
9 9 8 8 8 8 8 7 7 7 7 7 6 6 6 6 6 6 6 6 5 5 5 5 5 5 4 4 4 4 4 4 4 4 3 3 3 3 3 3 2 2 2 2 2 2 1 1 1 1 1 0 0 -0 -0 -1 -1 -1 -1 -1 -1 -1 -1 -1 -1 -1 -1 -2 -2
9 8 8 8 8 7 7 7 7 7 6 6 6 6 6 6 6 6 6 5 5 5 5 5 4 4 4 4 4 4 4 4 4 3 3 3 3 3 2 2 2 2 2 2 2 1 1 1 1 1 1 0 -0 -0 -0 -1 -1 -1 -1 -2 -1 -1 -1 -1 -1 -1 -1 -1 -2
8 8 8 8 7 7 7 7 6 6 6 6 6 6 6 6 6 6 5 5 5 5 4 4 4 4 4 4 4 4 4 4 3 3 3 3 3 2 2 2 2 2 2 2 2 1 1 1 1 1 0 0 -0 -0 -1 -1 -1 -1 -2 -2 -2 -1 -1 -1 -1 -1 -1 -1 -2
8 8 7 7 7 6 6 6 6 6 6 6 6 6 6 6 5 5 5 5 4 4 4 4 4 4 4 4 4 4 4 3 3 3 3 3 2 2 2 2 2 2 2 2 1 1 1 1 1 0 0 -0 -0 -1 -1 -1 -1 -2 -2 -2 -2 -1 -1 -1 -1 -1 -1 -1 -2
7 7 7 7 6 6 6 6 6 6 6 6 6 6 6 5 5 5 5 4 4 4 4 4 4 4 4 4 4 4 3 3 3 3 2 2 2 2 2 2 2 2 1 1 1 1 1 1 1 0 0 -0 -0 -1 -1 -1 -2 -2 -2 -2 -2 -2 -1 -1 -1 -1 -1 -1 -1
7 6 6 6 6 6 6 6 6 6 6 6 6 5 5 5 5 4 4 4 4 4 4 4 4 4 4 4 4 3 3 3 3 2 2 2 2 2 2 1 1 1 1 1 1 1 1 1 0 0 -0 -0 -1 -1 -1 -2 -2 -2 -2 -2 -2 -2 -2 -2 -2 -1 -1 -1 -1
6 6 6 6 6 6 6 6 6 6 6 5 5 5 5 4 4 4 4 4 4 4 4 4 4 4 4 4 3 3 3 3 2 2 2 2 2 1 1 1 1 1 1 1 1 1 1 1 0 0 -0 -0 -1 -1 -2 -2 -2 -3 -3 -3 -3 -2 -2 -2 -2 -2 -2 -2 -2
6 6 6 6 6 6 6 6 6 5 5 5 5 4 4 4 4 4 4 4 4 4 4 4 4 4 3 3 3 3 2 2 2 2 2 2 1 1 1 1 1 1 1 1 1 1 1 0 0 0 -0 -0 -1 -1 -2 -2 -3 -3 -3 -3 -3 -3 -2 -2 -2 -2 -2 -2 -2
6 6 6 6 6 6 5 5 5 5 5 4 4 4 4 4 4 4 4 4 4 4 4 4 4 3 3 3 2 2 2 2 2 2 2 1 1 1 1 1 1 1 1 1 1 1 0 0 0 -0 -0 -1 -1 -1 -2 -2 -3 -3 -3 -3 -3 -3 -3 -3 -3 -3 -3 -3 -3
6 6 6 5 5 5 5 5 5 4 4 4 4 4 4 5 5 5 4 4 4 4 4 3 3 3 3 2 2 2 2 2 2 2 1 1 1 1 1 1 1 1 1 1 1 0 0 0 0 -0 -0 -1 -1 -1 -2 -2 -3 -3 -3 -3 -3 -3 -4 -3 -4 -4 -4 -3 -3
Height
1537 1538 1539 1540 1540 1540 1541 1542 1543 1544 1545 1546 1547 1548 1549 1550 1551 1551 1552 1553 1554 1554 1555 1555 1555 1555 1555 1555 1555 1555 1555 1554 1554 1553 1553 1553 1552 1552 1552 1552 1551 1551 1550 1550 1550 1549 1549 1548 1547 1546 1546 1545 1544 1543 1542 1541 1540 1539 1538 1537 1536 1535 1534 1533 1532 1531 1530 1530 1528
1536 1536 1537 1538 1538 1539 1540 1541 1541 1542 1544 1545 1546 1547 1548 1549 1550 1550 1551 1552 1552 1553 1553 1554 1554 1554 1554 1554 1554 1553 1553 1553 1552 1552 1552 1551 1551 1551 1550 1550 1550 1550 1549 1549 1548 1548 1547 1546 1546 1545 1544 1543 1542 1541 1540 1539 1538 1537 1536 1535 1534 1533 1533 1532 1531 1530 1529 1528 1527
1534 1535 1535 1536 1537 1537 1538 1539 1540 1541 1542 1543 1545 1545 1547 1547 1548 1549 1550 1550 1551 1552 1552 1552 1552 1552 1552 1552 1552 1552 1552 1551 1551 1551 1550 1550 1550 1550 1549 1549 1549 1548 1548 1547 1547 1546 1546 1545 1544 1543 1542 1541 1540 1540 1538 1537 1536 1536 1535 1534 1533 1532 1531 1530 1529 1529 1528 1527 1526
1533 1533 1534 1535 1535 1536 1537 1538 1539 1540 1541 1542 1543 1544 1545 1546 1547 1548 1549 1549 1550 1550 1550 1551 1551 1551 1551 1551 1551 1550 1550 1550 1550 1549 1549 1549 1548 1548 1548 1547 1547 1547 1546 1546 1545 1545 1544 1543 1543 1542 1541 1540 1539 1538 1537 1536 1535 1534 1533 1532 1531 1530 1530 1529 1528 1527 1526 1525 1525
1531 1532 1532 1533 1534 1535 1536 1537 1538 1539 1540 1541 1542 1543 1544 1545 1546 1546 1547 1548 1548 1549 1549 1549 1550 1550 1550 1550 1550 1549 1549 1549 1548 1548 1547 1547 1547 1546 1546 1546 1545 1545 1545 1544 1544 1543 1542 1542 1541 1540 1539 1538 1537 1536 1535 1534 1534 1532 1531 1530 1530 1529 1528 1527 1526 1525 1525 1524 1523
1530 1530 1531 1532 1533 1534 1535 1536 1537 1538 1539 1540 1541 1542 1542 1543 1544 1545 1546 1546 1547 1547 1548 1548 1548 1548 1548 1548 1548 1548 1547 1547 1547 1546 1546 1546 1545 1545 1545 1544 1544 1544 1543 1543 1542 1541 1541 1540 1539 1538 1537 1536 1535 1535 1534 1533 1532 1531 1530 1529 1528 1527 1526 1525 1525 1524 1523 1522 1521
1528 1529 1530 1531 1532 1533 1534 1535 1536 1537 1538 1539 1540 1540 1541 1542 1543 1544 1545 1545 1545 1546 1546 1546 1546 1547 1547 1547 1546 1546 1546 1545 1545 1545 1545 1544 1544 1544 1543 1543 1542 1542 1541 1541 1540 1540 1539 1538 1538 1536 1535 1535 1534 1533 1532 1531 1530 1530 1529 1528 1526 1526 1525 1524 1523 1522 1521 1520 1520
1527 1528 1529 1530 1530 1531 1532 1533 1534 1535 1536 1537 1538 1539 1540 1541 1542 1543 1543 1544 1544 1544 1545 1545 1545 1545 1545 1545 1545 1545 1545 1544 1544 1543 1543 1543 1542 1542 1541 1541 1541 1540 1540 1539 1539 1538 1537 1536 1536 1535 1534 1533 1532 1531 1530 1529 1528 1528 1527 1526 1525 1524 1523 1522 1521 1520 1519 1519 1518
1526 1526 1527 1528 1529 1530 1531 1532 1533 1534 1535 1536 1537 1538 1539 1540 1541 1541 1542 1542 1543 1543 1543 1544 1544 1544 1544 1544 1544 1543 1543 1543 1542 1542 1541 1541 1541 1540 1540 1540 1539 1539 1538 1537 1537 1536 1535 1535 1534 1533 1532 1531 1530 1529 1528 1527 1526 1526 1525 1524 1524 1523 1522 1520 1519 1518 1517 1516 1516
1524 1525 1526 1527 1528 1529 1530 1531 1532 1533 1534 1535 1536 1537 1538 1539 1539 1540 1540 1540 1541 1541 1542 1542 1542 1542 1542 1542 1542 1542 1541 1541 1541 1540 1540 1540 1539 1539 1538 1538 1537 1537 1536 1535 1535 1535 1534 1533 1532 1531 1530 1529 1528 1527 1526 1526 1525 1524 1523 1522 1522 1521 1520 1519 1518 1516 1515 1515 1514
1523 1524 1525 1526 1526 1528 1529 1530 1531 1532 1533 1534 1535 1535 1536 1537 1538 1538 1539 1539 1540 1540 1540 1540 1541 1541 1541 1541 1540 1540 1540 1540 1539 1539 1539 1538 1538 1537 1537 1536 1536 1535 1535 1534 1533 1533 1532 1531 1530 1529 1528 1527 1526 1525 1525 1524 1523 1522 1521 1520 1520 1519 1518 1517 1516 1515 1514 1513 1512
1522 1523 1524 1525 1525 1526 1527 1528 1529 1530 1531 1532 1533 1534 1535 1535 1536 1537 1537 1538 1538 1539 1539 1539 1539 1539 1539 1539 1539 1539 1538 1538 1538 1537 1537 1536 1536 1536 1535 1535 1534 1534 1533 1532 1532 1531 1530 1529 1528 1527 1526 1525 1525 1524 1523 1522 1521 1520 1520 1519 1518 1517 1516 1515 1515 1513 1512 1511 1510
1520 1521 1522 1523 1524 1525 1526 1527 1528 1529 1530 1531 1532 1533 1533 1534 1535 1535 1536 1536 1537 1537 1537 1537 1538 1538 1538 1537 1537 1537 1537 1536 1536 1536 1535 1535 1535 1534 1534 1533 1533 1532 1531 1531 1530 1529 1528 1527 1526 1526 1525 1524 1523 1522 1520 1520 1519 1518 1517 1517 1516 1515 1514 1513 1512 1511 1510 1509 1508
1519 1520 1521 1522 1523 1524 1525 1526 1526 1527 1529 1530 1530 1531 1532 1533 1533 1534 1535 1535 1535 1535 1536 1536 1536 1536 1536 1536 1535 1535 1535 1535 1535 1534 1534 1534 1533 1533 1532 1532 1531 1531 1530 1529 1528 1527 1526 1525 1525 1524 1523 1522 1521 1520 1519 1518 1517 1516 1515 1515 1514 1513 1512 1511 1510 1510 1509 1507 1506
1518 1519 1520 1520 1521 1522 1523 1524 1525 1526 1527 1528 1529 1530 1530 1531 1532 1533 1533 1534 1534 1534 1534 1535 1535 1535 1534 1534 1534 1534 1533 1533 1533 1533 1532 1532 1531 1531 1531 1530 1530 1529 1528 1527 1526 1525 1525 1524 1523 1521 1520 1520 1519 1518 1517 1516 1515 1514 1513 1513 1512 1511 1510 1510 1509 1508 1506 1505 1505
1516 1517 1518 1519 1520 1521 1522 1523 1524 1525 1525 1526 1527 1528 1529 1530 1531 1531 1532 1532 1532 1533 1533 1533 1533 1533 1533 1532 1532 1532 1532 1532 1531 1531 1531 1530 1530 1530 1529 1528 1528 1527 1526 1525 1525 1523 1522 1521 1520 1520 1518 1517 1517 1516 1515 1514 1513 1512 1511 1510 1510 1509 1508 1508 1507 1505 1505 1504 1503
1515 1516 1516 1517 1518 1519 1520 1521 1522 1523 1524 1525 1526 1527 1528 1529 1529 1530 1530 1530 1531 1531 1531 1531 1531 1531 1531 1531 1530 1530 1530 1530 1530 1530 1529 1529 1528 1528 1527 1527 1526 1525 1524 1524 1522 1521 1520 1519 1518 1517 1516 1515 1515 1514 1513 1512 1511 1510 1509 1509 1508 1507 1506 1505 1505 1504 1503 1502 1501
1513 1514 1515 1516 1517 1518 1519 1520 1521 1522 1523 1524 1525 1526 1527 1527 1528 1528 1529 1529 1529 1530 1530 1530 1530 1530 1529 1529 1529 1529 1529 1529 1528 1528 1527 1527 1526 1526 1525 1525 1524 1523 1522 1521 1520 1520 1518 1517 1516 1515 1514 1513 1512 1511 1510 1510 1509 1508 1507 1507 1506 1505 1504 1504 1503 1502 1501 1500 1499
1512 1513 1514 1515 1515 1516 1517 1519 1520 1521 1522 1523 1524 1525 1525 1526 1526 1527 1527 1527 1528 1528 1528 1528 1528 1528 1528 1527 1527 1527 1527 1527 1526 1526 1526 1525 1525 1524 1524 1523 1522 1521 1520 1519 1518 1517 1516 1515 1514 1513 1512 1511 1510 1509 1508 1507 1507 1506 1505 1505 1504 1503 1502 1501 1501 1500 1499 1498 1497
1510 1511 1512 1513 1514 1515 1516 1518 1519 1520 1521 1522 1522 1523 1524 1525 1525 1525 1526 1526 1526 1526 1526 1526 1526 1526 1526 1526 1526 1525 1525 1525 1525 1524 1524 1523 1523 1522 1522 1521 1520 1519 1518 1517 1516 1515 1514 1513 1512 1511 1510 1509 1508 1507 1506 1505 1504 1504 1503 1502 1502 1501 1500 1500 1499 1498 1497 1496 1495
1509 1510 1511 1512 1513 1514 1515 1517 1518 1519 1520 1520 1521 1522 1522 1523 1523 1524 1524 1524 1525 1525 1525 1525 1525 1525 1524 1524 1524 1524 1524 1523 1523 1522 1522 1521 1521 1520 1520 1519 1518 1517 1516 1515 1514 1513 1512 1511 1510 1509 1507 1506 1505 1505 1504 1503 1502 1501 1500 1500 1499 1499 1498 1497 1497 1496 1495 1494 1493
1508 1509 1510 1511 1512 1513 1515 1515 1516 1517 1518 1519 1520 1520 1521 1521 1522 1522 1522 1523 1523 1523 1523 1523 1523 1523 1523 1523 1523 1522 1522 1521 1521 1520 1520 1519 1519 1518 1517 1516 1515 1515 1514 1512 1511 1510 1510 1508 1507 1506 1505 1504 1503 1502 1501 1500 1500 1499 1498 1498 1497 1496 1496 1495 1495 1494 1493 1491 1490
1507 1508 1509 1510 1511 1512 1513 1514 1515 1516 1517 1518 1518 1519 1520 1520 1520 1521 1521 1521 1521 1521 1521 1521 1521 1521 1521 1521 1521 1520 1520 1520 1519 1519 1518 1517 1516 1516 1515 1514 1513 1512 1511 1510 1509 1508 1507 1506 1505 1504 1503 1502 1501 1500 1499 1498 1497 1497 1496 1495 1495 1494 1493 1493 1492 1491 1490 1489 1488
1506 1507 1508 1509 1510 1511 1512 1513 1514 1515 1515 1516 1517 1518 1518 1519 1519 1519 1520 1520 1520 1520 1520 1520 1520 1520 1520 1519 1519 1519 1518 1518 1517 1516 1516 1515 1514 1514 1513 1512 1511 1510 1509 1508 1507 1506 1505 1504 1503 1502 1501 1500 1499 1498 1497 1496 1495 1494 1493 1493 1492 1491 1491 1490 1490 1489 1488 1487 1486
1505 1506 1507 1508 1509 1510 1511 1512 1513 1514 1514 1515 1516 1516 1517 1517 1517 1518 1518 1518 1518 1518 1518 1518 1518 1518 1518 1518 1517 1517 1516 1516 1515 1514 1514 1513 1512 1511 1510 1509 1508 1507 1507 1506 1505 1504 1503 1501 1500 1500 1499 1498 1496 1495 1494 1493 1492 1491 1491 1490 1489 1488 1488 1487 1487 1486 1485 1484 1483
1504 1505 1506 1507 1508 1509 1510 1511 1512 1512 1513 1514 1515 1515 1515 1516 1516 1516 1517 1517 1517 1517 1517 1517 1517 1516 1516 1516 1515 1515 1514 1514 1513 1512 1511 1511 1510 1509 1508 1507 1506 1505 1504 1504 1503 1501 1500 1499 1498 1497 1496 1495 1494 1493 1492 1490 1490 1489 1488 1487 1486 1486 1485 1484 1484 1483 1482 1481 1480
1503 1504 1505 1506 1507 1508 1509 1510 1510 1511 1512 1513 1513 1514 1514 1515 1515 1515 1515 1515 1515 1515 1515 1515 1515 1515 1515 1514 1513 1513 1512 1511 1511 1510 1509 1508 1508 1506 1505 1505 1504 1503 1502 1501 1500 1499 1498 1497 1496 1495 1494 1493 1491 1490 1489 1488 1487 1486 1485 1484 1484 1483 1482 1481 1481 1480 1480 1479 1477
1502 1503 1504 1505 1506 1507 1508 1509 1509 1510 1511 1511 1512 1512 1513 1513 1514 1514 1514 1514 1514 1514 1514 1514 1513 1513 1513 1512 1511 1511 1510 1510 1509 1508 1507 1506 1505 1504 1503 1502 1501 1500 1500 1499 1498 1497 1496 1495 1494 1493 1492 1491 1490 1488 1487 1486 1485 1484 1483 1482 1481 1480 1479 1479 1478 1477 1476 1475 1475
1501 1502 1503 1504 1505 1505 1506 1507 1508 1509 1510 1510 1511 1511 1512 1512 1512 1513 1513 1513 1513 1512 1512 1512 1511 1511 1510 1510 1509 1509 1508 1507 1506 1505 1505 1504 1503 1502 1501 1500 1499 1498 1497 1497 1496 1495 1494 1493 1492 1491 1490 1489 1488 1486 1485 1484 1482 1481 1480 1480 1479 1478 1477 1476 1475 1475 1474 1473 1472
1500 1501 1502 1503 1504 1505 1505 1506 1507 1508 1509 1510 1510 1510 1511 1511 1511 1511 1511 1511 1511 1511 1510 1510 1510 1509 1508 1508 1507 1506 1506 1505 1504 1503 1502 1501 1500 1499 1498 1497 1496 1495 1495 1495 1494 1493 1491 1490 1490 1489 1488 1487 1485 1484 1483 1481 1480 1479 1478 1477 1476 1475 1475 1474 1473 1472 1471 1470 1470
1499 1500 1501 1502 1503 1504 1505 1506 1506 1507 1508 1508 1509 1509 1510 1510 1510 1510 1510 1510 1510 1509 1509 1508 1508 1507 1506 1506 1505 1504 1503 1502 1501 1500 1500 1499 1497 1496 1495 1495 1494 1493 1493 1492 1491 1490 1489 1488 1487 1486 1485 1484 1483 1482 1480 1479 1478 1477 1476 1475 1474 1473 1472 1472 1471 1470 1469 1468 1467
1498 1499 1500 1501 1502 1503 1504 1505 1506 1506 1507 1508 1508 1508 1509 1509 1509 1509 1508 1508 1508 1507 1507 1506 1505 1505 1504 1503 1502 1502 1501 1500 1499 1498 1497 1496 1495 1494 1493 1492 1491 1490 1490 1490 1489 1488 1487 1486 1485 1484 1483 1482 1481 1480 1478 1477 1476 1475 1474 1472 1471 1471 1470 1469 1468 1467 1467 1466 1465
1497 1498 1500 1500 1501 1502 1503 1504 1505 1506 1506 1507 1507 1507 1507 1507 1507 1507 1507 1506 1506 1505 1505 1504 1503 1503 1502 1501 1500 1499 1498 1497 1496 1495 1494 1493 1492 1491 1490 1489 1489 1488 1487 1487 1486 1485 1485 1484 1482 1481 1480 1480 1478 1477 1475 1474 1473 1472 1471 1470 1469 1468 1467 1466 1465 1465 1464 1463 1463
1497 1498 1499 1500 1501 1502 1503 1504 1504 1505 1505 1506 1506 1506 1506 1506 1506 1505 1505 1505 1504 1503 1503 1502 1501 1500 1500 1499 1498 1497 1496 1495 1494 1493 1492 1490 1490 1489 1487 1486 1486 1485 1485 1485 1484 1483 1482 1481 1480 1479 1478 1477 1476 1474 1473 1472 1470 1470 1468 1467 1466 1465 1465 1464 1463 1462 1461 1460 1460
1496 1498 1499 1500 1500 1501 1502 1503 1504 1504 1505 1505 1505 1505 1505 1505 1504 1504 1503 1503 1502 1501 1500 1500 1499 1498 1497 1496 1495 1495 1493 1492 1491 1490 1489 1488 1487 1486 1485 1484 1483 1483 1483 1482 1481 1480 1480 1479 1478 1477 1476 1475 1473 1472 1470 1469 1468 1467 1465 1465 1464 1463 1462 1461 1460 1459 1458 1458 1457
1496 1497 1499 1500 1500 1501 1502 1503 1503 1504 1504 1504 1504 1504 1503 1503 1502 1502 1501 1500 1500 1499 1498 1497 1496 1496 1495 1494 1493 1492 1491 1490 1489 1488 1487 1485 1485 1483 1482 1481 1481 1480 1480 1480 1479 1478 1477 1476 1475 1475 1473 1472 1470 1469 1468 1466 1465 1464 1463 1462 1461 1460 1459 1458 1457 1456 1455 1455 1454
1496 1498 1499 1500 1500 1501 1501 1502 1502 1502 1502 1502 1502 1502 1502 1501 1500 1500 1499 1499 1498 1497 1496 1495 1494 1493 1492 1491 1490 1489 1488 1487 1486 1485 1484 1483 1482 1481 1480 1479 1478 1478 1478 1477 1477 1476 1475 1474 1473 1472 1471 1470 1468 1466 1465 1464 1462 1461 1460 1459 1458 1457 1456 1455 1454 1453 1452 1451 1451
1497 1498 1499 1499 1500 1500 1501 1501 1501 1501 1501 1501 1501 1500 1500 1499 1499 1498 1497 1496 1495 1495 1494 1493 1492 1491 1490 1489 1488 1486 1485 1485 1484 1483 1482 1481 1480 1479 1478 1477 1476 1475 1475 1475 1474 1473 1473 1472 1471 1470 1469 1467 1465 1464 1462 1461 1460 1459 1457 1456 1455 1454 1453 1452 1451 1450 1449 1448 1448
1497 1498 1498 1499 1500 1500 1500 1500 1500 1500 1500 1500 1499 1499 1498 1497 1496 1496 1495 1494 1493 1492 1491 1490 1489 1488 1487 1486 1485 1484 1483 1482 1481 1480 1479 1478 1477 1476 1475 1474 1473 1473 1472 1472 1471 1471 1470 1469 1468 1467 1466 1465 1463 1461 1460 1458 1457 1456 1455 1454 1452 1451 1450 1450 1449 1448 1446 1445 1445
1497 1497 1498 1498 1499 1499 1499 1499 1499 1499 1498 1498 1497 1496 1496 1495 1495 1494 1493 1492 1491 1490 1489 1488 1486 1485 1485 1484 1482 1481 1480 1479 1478 1477 1476 1475 1475 1474 1473 1472 1471 1470 1470 1469 1469 1468 1467 1466 1465 1465 1463 1462 1460 1459 1457 1456 1455 1453 1452 1451 1450 1449 1448 1447 1446 1445 1444 1443 1442
1496 1497 1497 1498 1498 1498 1498 1497 1497 1497 1496 1496 1495 1495 1494 1493 1492 1491 1490 1490 1488 1487 1486 1485 1484 1483 1482 1481 1480 1478 1477 1476 1475 1475 1474 1473 1472 1471 1470 1469 1468 1467 1467 1466 1466 1465 1465 1464 1463 1462 1461 1459 1458 1456 1455 1453 1452 1450 1449 1449 1448 1447 1445 1444 1443 1442 1442 1441 1440
Wind_Speed
27 27 27 27 27 28 28 28 28 27 27 26 26 26 27 27 27 27 27 25 24 23 22 20 19 18 17 17 17 17 18 18 18 18 18 18 18 18 18 19 19 18 18 18 19 19 20 21 23 24 25 26 27 27 27 27 27 27 27 27 27 26 26 26 25 25 25 25 25
28 28 28 28 28 29 28 28 28 27 27 26 26 26 27 27 27 27 27 26 24 23 22 21 19 18 17 17 17 18 18 18 18 18 18 18 18 18 18 19 18 18 18 19 19 20 21 22 24 25 26 27 27 28 28 28 27 27 27 27 27 26 26 25 25 25 24 24 24
29 29 29 29 29 29 29 29 28 28 27 27 26 26 27 27 27 27 27 26 24 23 22 21 20 19 18 18 18 18 18 18 18 18 18 18 18 18 18 19 19 19 19 19 20 21 22 23 24 26 27 27 28 28 28 28 28 27 27 26 26 26 26 25 25 25 24 24 24
30 30 30 30 30 30 30 29 29 29 28 28 27 27 28 28 28 27 27 26 25 23 22 21 20 19 18 18 18 19 19 19 18 18 18 18 18 18 19 19 19 19 19 20 20 21 23 24 25 26 27 28 28 28 28 28 28 27 27 27 26 26 25 25 25 24 24 24 24
31 31 31 31 30 30 30 29 29 29 29 29 29 29 29 29 28 28 27 26 25 23 22 21 20 19 19 19 19 19 19 19 18 18 18 18 19 19 19 19 19 19 20 20 21 22 24 25 26 27 28 28 28 28 28 28 28 27 27 27 26 26 25 25 25 24 24 24 24
32 32 32 31 30 30 30 30 29 29 29 30 29 29 29 29 29 28 27 26 25 23 22 21 20 20 20 20 20 20 20 19 19 18 19 19 19 19 19 19 20 20 21 21 22 23 25 26 27 28 28 29 29 28 28 28 27 27 27 27 26 26 25 25 25 24 24 24 24
32 32 31 31 30 30 30 30 30 30 30 30 30 30 30 29 29 28 26 25 24 23 22 21 21 20 20 20 20 20 20 19 19 19 19 19 19 19 20 20 20 21 21 22 23 24 26 27 28 28 29 29 29 29 28 28 27 27 26 26 26 26 25 25 25 25 24 24 24
32 32 31 31 31 31 31 31 31 30 30 30 30 30 29 29 28 27 26 25 24 23 22 22 21 21 21 21 21 21 20 20 19 19 19 19 20 20 20 21 21 22 22 23 24 25 27 28 28 29 29 29 29 29 28 28 28 27 26 26 26 26 26 25 25 25 25 25 25
32 32 32 31 31 31 31 31 31 30 30 30 30 29 29 28 27 27 26 25 24 23 23 22 22 22 22 22 21 21 20 20 20 19 19 20 20 20 21 21 22 22 23 24 25 26 27 28 29 29 29 29 29 29 28 28 28 27 27 26 26 26 26 25 25 25 25 25 25
32 32 32 32 31 31 31 31 30 30 30 29 29 29 28 28 27 27 26 25 24 24 23 23 22 22 22 22 22 21 20 20 20 20 20 20 21 21 21 22 22 23 24 25 26 27 28 29 29 30 30 30 29 29 28 28 28 27 27 27 26 26 25 25 25 26 26 26 26
33 32 32 32 31 31 31 31 30 30 29 29 29 28 28 28 27 27 26 25 24 24 23 23 23 23 22 22 22 21 21 20 20 20 20 21 21 21 22 22 23 24 25 26 27 28 29 30 30 30 30 30 30 29 29 28 28 27 27 27 27 26 26 25 25 26 26 26 27
33 32 32 32 31 31 31 30 30 30 30 29 29 29 28 28 27 27 26 25 25 24 24 24 23 23 22 22 22 21 21 20 20 20 21 21 22 22 22 23 24 25 26 27 28 29 30 30 30 30 30 30 30 29 29 28 28 28 27 27 27 27 26 26 26 26 26 27 27
32 32 32 31 31 31 31 30 30 30 30 30 29 29 28 28 28 27 26 25 25 25 24 24 23 23 22 22 21 21 21 21 21 21 21 22 22 22 23 23 24 25 27 28 29 30 30 31 31 30 30 30 30 29 29 29 28 28 28 27 27 27 27 26 26 26 26 27 27
32 32 32 32 31 31 31 31 30 30 30 29 29 29 28 28 27 27 26 25 25 25 24 24 23 23 22 22 21 21 21 21 21 21 22 22 22 23 23 24 25 26 27 29 30 30 31 31 31 31 30 30 30 29 29 29 29 28 28 28 27 27 27 27 27 27 27 27 27
32 32 32 32 31 31 31 31 31 30 30 29 29 29 28 27 27 26 26 25 25 25 24 24 23 23 22 22 21 21 21 21 21 22 22 23 23 23 24 25 26 27 28 29 30 31 31 31 31 31 30 30 30 29 29 29 29 29 28 28 28 28 27 27 27 27 27 28 28
32 32 32 32 31 31 31 31 30 30 29 29 29 28 27 27 26 26 26 25 25 25 24 23 23 22 22 22 21 21 21 22 22 22 23 23 23 24 25 26 27 28 29 30 31 31 32 32 31 31 31 30 30 30 29 29 29 29 29 29 28 28 28 27 27 27 28 28 28
32 32 32 32 32 32 31 31 30 30 29 28 28 27 27 26 26 26 25 25 25 24 23 23 22 22 22 22 22 22 22 22 22 23 23 24 24 25 26 27 28 29 30 31 31 32 32 32 32 32 31 31 30 30 30 29 29 29 29 29 29 28 28 28 28 28 28 28 29
32 32 32 32 32 32 32 31 30 29 28 27 27 26 26 26 25 25 25 25 24 23 23 22 22 22 22 22 22 22 22 23 23 23 24 24 25 26 27 28 29 30 31 31 32 32 32 32 32 32 31 31 31 30 30 30 30 29 29 29 29 29 28 28 28 28 28 28 29
32 32 32 32 32 32 31 30 29 28 27 26 26 25 25 25 25 25 24 24 23 23 22 22 22 22 22 22 22 23 23 23 24 24 25 25 26 27 28 29 30 30 31 32 32 32 32 32 32 32 32 31 31 31 30 30 30 30 30 29 29 29 29 28 28 28 28 29 29
32 32 32 32 31 31 30 29 28 27 26 25 25 25 25 25 25 24 23 23 23 22 22 22 22 22 22 22 23 23 23 24 24 25 26 26 27 28 29 30 30 31 32 32 32 32 32 32 32 32 31 31 31 31 31 31 30 30 30 30 30 29 29 29 28 28 29 29 29
31 31 31 31 30 30 29 28 27 26 25 25 25 25 24 24 24 23 23 22 22 22 22 22 22 22 22 23 23 24 24 25 25 26 27 27 28 29 30 30 31 32 33 33 33 33 32 32 32 32 31 31 31 31 31 31 31 31 31 30 30 30 29 29 29 29 29 29 29
30 30 29 29 29 28 28 27 26 25 25 24 24 24 24 23 23 23 22 22 22 22 22 22 22 23 23 23 24 24 25 25 26 27 28 28 29 30 31 31 32 33 33 33 33 33 33 32 32 32 31 31 31 31 31 31 31 31 31 31 30 30 30 29 29 29 29 29 29
29 28 28 28 28 27 26 25 25 24 24 24 24 24 23 23 22 22 22 22 22 22 22 22 22 23 23 24 24 25 26 26 27 28 29 29 30 31 31 32 33 33 33 33 33 33 33 32 32 32 31 31 31 31 31 31 32 32 31 31 31 30 30 29 29 29 29 29 29
28 28 28 28 27 26 25 25 24 24 24 24 23 23 23 22 22 22 22 22 22 22 22 22 23 23 24 24 25 26 26 27 28 29 29 30 31 32 32 33 33 34 34 34 33 33 33 32 32 32 31 31 31 31 32 32 32 32 32 32 32 31 30 30 30 29 29 29 29
27 27 27 26 26 25 25 24 24 24 24 23 23 22 22 22 22 22 22 22 22 22 22 22 23 23 24 25 26 26 27 28 29 29 30 31 32 32 33 34 34 34 34 34 33 33 33 32 32 32 31 31 32 32 32 33 33 33 33 33 32 32 31 31 30 30 30 29 29
26 26 26 25 25 25 24 24 24 24 23 23 22 22 22 22 22 22 22 22 22 22 22 23 23 24 25 26 26 27 28 29 29 30 31 32 32 33 34 34 35 35 34 34 33 33 32 32 32 32 32 32 32 32 33 33 33 34 34 33 33 33 32 32 31 30 30 30 30
26 25 25 25 25 25 25 24 24 23 23 22 22 22 22 21 21 21 21 22 22 22 22 23 24 24 25 26 27 28 29 30 30 31 32 32 33 34 34 35 35 35 34 34 33 32 32 32 31 31 31 32 32 32 33 33 33 33 34 34 34 33 33 32 32 31 30 30 30
24 24 24 25 25 25 25 24 23 23 22 22 22 21 21 21 21 21 21 21 22 22 23 23 24 25 26 27 28 29 29 30 31 32 33 33 34 34 35 35 35 35 34 33 33 32 32 31 31 31 31 31 32 32 33 33 33 33 33 33 33 33 33 33 32 32 31 31 30
24 24 24 25 25 25 24 24 23 22 22 22 21 21 21 21 21 21 21 22 22 23 23 24 25 26 27 28 29 29 30 31 32 33 33 34 35 35 35 35 35 35 34 33 32 32 31 31 31 31 31 31 31 32 32 32 32 32 32 32 32 33 33 33 33 32 31 31 31
24 24 24 25 24 24 23 23 22 22 21 21 21 21 21 21 21 21 21 22 22 23 24 25 26 27 28 29 29 30 31 32 32 33 34 35 35 35 36 35 35 35 34 33 32 32 31 31 31 31 31 31 31 31 32 32 32 32 32 31 32 32 33 33 33 32 32 31 31
24 24 24 23 23 22 22 22 21 21 21 21 20 20 20 20 21 21 21 22 23 24 25 26 27 28 29 29 30 31 32 32 33 34 35 35 35 36 36 36 35 35 34 33 32 31 31 31 31 31 31 31 31 31 32 32 32 32 32 32 32 33 33 33 33 32 32 31 31
23 23 22 22 21 21 21 21 21 20 20 20 20 20 20 20 21 21 22 23 24 25 26 27 28 29 29 30 31 32 33 33 34 35 35 35 36 36 36 36 35 35 34 32 32 31 31 31 31 31 31 31 31 31 32 32 32 32 32 32 33 33 34 33 33 32 32 31 31
21 21 20 20 20 20 20 20 20 20 19 19 19 20 20 20 21 22 23 24 25 26 27 28 29 29 30 31 32 33 33 34 35 35 36 36 36 36 36 36 35 35 34 32 32 31 31 31 31 31 31 31 31 31 31 32 32 32 32 32 33 33 34 34 33 33 32 32 31
19 19 19 18 19 19 19 19 19 19 19 19 19 19 20 21 22 23 24 25 26 27 28 29 29 30 31 32 33 33 34 35 36 36 36 36 36 36 36 36 35 34 33 32 31 31 31 31 31 30 30 30 30 31 31 32 32 32 32 33 33 33 34 34 34 33 33 32 32
17 17 17 17 17 18 18 18 18 18 18 18 19 20 20 21 22 23 24 26 27 28 29 30 30 31 32 33 34 35 35 36 36 36 36 36 36 36 36 36 35 34 33 32 31 31 30 30 30 30 30 30 30 31 31 31 32 32 32 33 33 34 34 34 34 34 33 33 32
15 15 15 16 16 16 17 17 17 17 18 18 19 20 21 22 23 24 26 27 28 29 30 31 32 33 33 34 35 36 36 36 36 36 36 36 36 36 35 35 35 34 33 32 31 30 30 30 29 29 29 29 30 30 31 31 31 31 32 32 33 34 35 35 35 35 34 33 33
13 14 14 15 15 15 16 16 17 17 18 19 20 21 22 23 24 25 26 28 29 30 31 32 33 34 35 35 36 36 36 36 36 36 36 36 35 35 35 35 34 34 33 32 31 30 29 29 28 28 28 29 29 30 31 31 30 31 31 32 34 35 35 35 35 35 35 34 33
12 13 13 14 14 15 15 16 17 17 18 19 21 22 23 24 25 26 27 28 30 31 32 33 34 35 35 36 36 36 36 36 36 36 35 35 35 34 34 34 34 33 32 31 30 29 29 28 28 27 28 28 29 30 30 30 31 30 31 32 34 35 36 36 36 36 36 35 34
12 12 13 13 14 15 15 16 17 18 19 21 22 23 24 25 26 27 29 30 31 32 33 34 35 35 36 36 36 36 36 36 36 36 35 35 34 34 34 34 34 33 32 31 30 29 28 28 27 27 27 28 29 30 30 31 31 31 32 33 34 35 36 36 35 36 36 35 35
12 12 13 13 14 15 16 17 18 19 21 22 23 24 25 26 28 29 30 31 33 33 34 35 35 35 36 36 36 36 36 36 36 36 35 35 34 34 33 33 33 33 32 31 30 29 28 27 27 27 28 28 29 30 31 31 32 32 33 34 34 35 35 35 34 34 34 34 33
12 12 13 13 14 16 17 18 19 21 22 23 24 25 27 28 29 31 32 33 33 34 35 35 35 35 35 35 36 36 36 36 36 35 35 35 34 34 34 33 33 33 32 31 30 29 28 28 27 28 28 29 30 31 32 32 32 33 33 33 33 33 33 33 33 32 32 32 32
Wind_Direction
222 223 224 225 226 228 229 229 229 228 227 227 226 226 226 226 227 228 231 234 237 241 244 248 252 258 265 273 280 285 288 288 288 287 287 287 288 290 291 292 294 295 296 298 300 302 305 308 310 312 313 313 313 313 313 313 313 314 313 313 313 313 313 313 313 313 312 312 312
222 223 224 225 226 227 228 228 227 227 226 224 224 225 225 226 227 229 231 235 238 242 245 248 253 259 266 274 281 285 287 288 287 286 285 286 287 289 290 292 293 294 296 297 300 303 306 309 311 312 313 313 313 313 313 313 314 314 313 313 313 313 313 312 312 312 311 311 311
222 223 224 225 226 227 227 227 226 225 224 223 222 223 224 226 227 229 232 236 239 242 245 249 254 260 267 275 281 286 287 287 286 285 285 285 287 288 290 292 293 294 295 297 300 303 306 309 311 312 312 313 313 313 313 313 313 313 313 312 312 312 312 312 311 311 310 310 310
223 224 225 226 226 226 227 226 225 224 223 221 221 222 223 225 227 230 233 237 240 243 246 250 255 261 268 276 282 286 287 287 285 284 284 285 287 289 291 292 293 294 295 297 300 304 307 309 311 311 312 312 312 312 312 312 313 312 312 311 311 311 311 310 310 310 310 310 310
223 224 225 226 226 226 226 226 225 224 223 222 221 222 223 225 227 231 234 237 241 244 247 251 256 263 270 276 282 285 287 286 285 284 285 286 288 290 291 292 293 294 295 298 301 305 307 309 310 311 311 311 311 311 311 311 312 311 311 311 310 310 310 310 309 309 309 309 310
224 224 225 226 226 226 225 225 224 224 223 222 222 223 224 226 229 232 235 239 242 245 248 253 258 264 271 277 282 285 286 286 285 285 285 287 289 290 291 292 292 294 296 299 302 305 308 309 310 310 311 311 311 311 311 311 311 310 310 310 310 309 309 309 308 309 309 309 310
224 225 225 226 225 225 225 224 223 223 223 223 223 224 226 228 231 234 238 241 244 246 250 254 260 266 272 277 282 285 286 286 286 285 286 287 289 290 291 292 293 294 297 300 303 306 307 309 309 309 310 310 310 310 310 310 310 310 309 309 309 309 308 308 308 308 308 309 309
224 225 225 226 225 225 225 224 223 223 223 223 224 226 228 230 233 236 240 242 245 248 252 256 262 267 272 277 281 284 286 286 286 286 286 287 289 290 291 292 293 295 298 301 303 306 307 308 308 309 309 309 309 309 309 309 309 309 308 308 307 307 307 307 307 308 308 308 309
224 225 225 225 225 225 224 224 224 223 223 224 225 227 229 232 235 238 241 243 246 250 254 258 263 268 273 277 281 284 286 286 286 286 286 287 288 289 290 292 294 296 299 301 304 305 307 307 308 308 308 308 308 308 308 308 308 307 307 307 307 307 307 307 307 308 308 308 309
225 225 225 225 225 225 224 224 224 223 223 224 226 228 230 233 236 239 242 245 248 252 255 260 264 269 273 277 281 284 285 285 285 285 286 287 288 289 290 292 294 297 299 302 304 305 306 306 307 307 307 307 307 307 307 307 307 306 306 306 306 306 306 307 307 307 308 308 309
226 226 226 226 225 225 224 223 223 223 223 224 226 228 231 234 237 240 243 246 250 253 257 261 265 269 274 278 281 283 284 285 284 285 285 286 287 288 290 292 295 297 300 302 303 304 305 305 305 306 306 306 306 306 306 306 306 306 305 305 305 305 305 306 306 307 307 308 309
228 227 227 226 226 225 224 224 223 223 223 224 226 229 232 235 238 241 245 248 251 255 259 263 267 270 274 278 281 283 284 284 284 284 284 285 287 288 290 293 295 298 300 301 302 303 304 304 304 305 305 305 306 306 306 306 305 305 305 305 305 305 305 305 306 306 307 307 308
229 228 228 227 226 225 225 224 224 224 224 226 228 230 233 236 240 243 246 249 253 256 260 264 268 271 275 278 281 282 282 282 283 283 284 285 287 288 291 293 296 298 299 301 302 302 303 303 303 304 304 304 305 305 305 305 305 304 304 304 304 304 305 305 305 306 306 306 307
230 229 228 227 226 225 225 225 225 225 226 227 229 232 235 238 241 245 248 251 254 258 262 265 269 272 276 278 280 281 281 281 282 282 283 285 287 289 292 294 296 298 299 300 301 302 302 302 303 303 304 304 304 304 304 305 304 304 304 304 304 304 304 304 305 305 305 306 306
231 230 229 228 226 226 225 225 225 226 227 228 231 234 237 240 243 246 249 253 256 259 263 266 270 273 276 278 279 280 280 280 280 281 283 285 287 290 293 295 297 298 299 300 300 301 301 302 303 303 304 304 304 304 304 304 303 303 303 303 303 303 303 304 304 304 305 305 306
232 231 229 228 227 226 226 226 226 227 228 230 232 235 238 242 245 248 251 254 257 261 264 267 271 274 276 278 278 279 279 279 280 281 283 285 288 291 293 295 297 298 299 299 300 301 301 302 303 303 303 304 304 304 303 303 302 302 302 302 302 302 302 303 303 304 304 305 305
232 231 230 228 227 226 226 227 227 228 229 231 234 237 240 244 247 250 253 256 259 262 265 269 272 274 276 277 278 278 278 279 280 282 284 286 289 292 294 296 297 297 298 299 300 300 301 302 303 303 303 303 303 303 303 302 302 301 301 301 301 301 302 302 303 303 304 304 304
233 232 231 229 228 227 227 228 228 229 231 233 236 240 243 246 249 252 255 257 260 263 266 270 272 274 275 276 277 277 278 279 280 282 285 288 290 293 294 296 296 297 298 299 300 300 301 302 303 303 303 303 303 303 302 301 301 300 300 300 300 301 301 302 302 302 302 303 303
233 233 231 230 229 229 229 229 229 231 233 236 239 242 245 248 251 253 256 259 261 264 267 270 272 274 275 275 276 277 278 279 281 283 286 289 291 293 295 296 296 297 298 299 300 301 302 302 303 303 303 303 303 302 301 301 300 300 299 299 300 300 301 301 301 301 301 301 301
234 233 232 231 230 230 230 230 231 233 235 238 241 244 247 249 252 254 257 259 262 265 268 270 272 274 275 275 276 277 278 280 282 285 287 290 292 294 295 296 296 297 298 299 300 301 302 303 303 303 303 302 302 301 301 300 300 299 299 299 299 300 300 300 300 300 300 300 300
235 234 233 232 231 231 231 231 232 234 236 239 242 245 247 250 253 255 258 260 263 266 268 270 272 273 274 275 276 277 279 281 284 286 289 291 293 294 295 295 296 297 298 299 300 302 302 303 303 303 302 302 301 301 300 299 299 299 299 299 299 299 299 299 299 299 299 299 300
235 234 233 232 231 231 231 232 233 235 237 240 242 245 248 251 253 256 258 261 264 266 268 271 272 273 274 275 276 278 280 283 285 288 290 292 293 294 295 296 296 297 298 300 301 302 303 303 303 302 302 301 301 300 299 299 298 298 298 298 298 298 299 299 299 299 299 299 300
234 233 232 231 231 231 231 232 233 235 237 240 243 246 248 251 254 256 259 262 265 267 269 271 272 274 274 276 277 279 282 284 287 289 291 292 293 294 295 296 297 297 299 300 301 302 303 303 303 302 302 301 300 299 298 298 298 297 297 297 297 297 297 298 298 299 299 299 299
234 232 231 231 231 231 231 232 233 235 238 241 244 246 249 251 254 257 260 263 266 268 270 272 273 274 275 277 279 281 283 286 288 290 292 293 294 294 295 296 297 298 299 301 302 302 302 302 302 302 301 300 300 299 298 297 297 297 297 296 297 297 297 298 298 299 299 299 299
234 232 231 230 230 230 231 232 233 236 239 242 245 247 250 252 255 258 262 265 267 269 271 272 274 275 277 278 280 283 285 287 289 291 292 293 294 295 295 296 297 299 300 301 302 302 302 302 302 301 301 300 299 299 298 297 297 297 297 297 298 298 298 299 299 299 300 300 300
234 232 231 230 229 230 230 232 234 237 240 243 245 248 250 253 257 260 263 266 269 271 272 274 275 276 278 280 282 284 286 288 290 291 292 293 294 295 296 296 298 299 300 302 302 302 302 302 302 302 301 300 300 299 299 298 298 298 298 299 299 299 299 300 300 301 301 302 302
234 231 229 228 228 229 231 233 235 238 241 243 246 248 252 255 258 262 265 268 270 272 274 275 276 278 280 282 284 286 288 290 291 292 293 293 294 295 296 297 298 299 301 301 302 302 302 302 302 301 301 300 300 299 299 299 299 298 298 298 299 299 300 301 302 302 303 303 303
232 230 228 227 228 229 231 234 236 239 241 244 247 250 253 257 261 264 267 269 272 273 275 277 278 280 282 284 286 288 290 291 292 292 293 294 294 295 296 297 298 299 300 301 302 301 301 301 301 301 300 300 299 299 298 298 298 297 297 297 298 299 300 301 303 304 304 304 304
229 228 227 227 228 230 232 235 237 239 242 245 248 252 256 259 263 266 269 271 273 275 277 279 281 283 285 286 288 290 291 291 292 292 293 294 295 296 297 297 298 299 300 301 301 301 301 301 300 300 299 299 298 297 297 296 296 296 296 295 296 297 299 301 302 303 303 303 303
226 226 226 228 230 232 233 235 238 240 243 247 250 254 258 262 265 268 271 273 275 277 279 281 283 285 287 289 290 291 291 292 292 293 294 295 295 296 297 298 298 299 300 301 301 301 301 300 300 299 299 298 297 296 295 295 295 294 294 293 294 295 297 299 300 301 301 301 301
224 225 227 229 231 233 234 236 239 242 245 248 252 256 260 264 267 270 273 275 277 280 282 285 286 288 289 290 291 291 292 292 293 294 295 296 296 297 297 298 298 299 300 300 300 300 300 299 299 298 298 297 296 295 294 294 294 293 293 292 293 294 296 298 299 299 300 300 300
223 225 227 229 231 233 234 236 239 243 246 250 255 259 263 267 270 273 276 278 281 284 286 287 289 290 290 291 291 292 293 293 294 295 296 296 297 297 298 298 298 299 299 300 300 299 299 298 298 297 297 296 295 294 294 293 293 293 292 293 293 295 297 298 299 299 299 299 299
222 225 227 229 230 232 234 236 240 244 249 253 258 262 266 270 273 277 280 283 285 287 288 289 290 290 291 291 292 293 294 294 295 296 296 296 297 297 297 298 298 298 299 300 299 299 298 298 297 297 296 296 295 294 294 293 293 293 293 293 293 295 296 298 298 299 299 298 298
221 224 225 227 228 230 234 238 242 247 252 257 262 266 270 274 278 281 284 286 288 288 289 290 290 291 292 292 293 293 294 295 296 296 296 296 297 297 297 297 298 298 299 299 299 299 298 298 297 297 296 295 295 294 294 294 293 293 293 293 294 295 296 297 298 298 298 298 297
220 221 223 225 227 231 235 240 246 251 257 262 267 271 276 280 283 285 287 288 289 289 290 291 292 292 293 293 294 294 295 295 295 296 296 296 296 296 296 297 297 298 298 298 298 298 298 297 297 296 296 295 294 294 294 294 294 293 293 293 294 295 297 298 298 298 298 297 297
216 218 221 224 229 234 239 246 251 257 263 268 273 278 281 284 286 287 288 289 289 290 291 292 293 293 293 294 294 294 295 295 295 295 295 295 296 296 296 296 297 297 297 298 298 298 297 297 297 296 296 295 295 295 295 295 294 293 293 293 294 296 297 298 298 298 298 297 297
212 217 222 227 233 240 246 252 259 264 270 275 279 283 285 286 287 288 289 290 290 291 292 292 293 293 293 294 294 294 294 294 294 294 294 295 295 295 296 296 296 296 297 297 298 297 297 297 297 296 296 296 296 296 296 296 294 293 293 293 294 296 297 298 298 298 298 297 297
213 220 227 234 241 248 254 261 266 272 277 281 283 285 286 287 288 289 290 291 291 292 292 293 293 293 293 293 293 293 293 293 293 293 293 294 294 295 295 295 295 296 297 297 297 297 297 297 297 297 297 297 297 297 297 296 294 293 292 292 294 295 296 296 297 297 297 297 297
220 227 235 242 249 256 263 269 274 278 281 284 285 286 287 289 290 290 291 292 292 292 292 292 292 292 292 292 292 292 292 292 293 293 293 293 294 294 294 295 295 296 297 297 297 298 297 297 297 298 298 298 299 298 298 296 294 293 292 292 293 294 294 294 295 295 296 296 296
229 237 244 251 259 265 271 275 279 281 283 285 286 288 289 290 291 292 292 292 292 292 292 292 292 292 292 292 292 292 292 292 293 293 293 294 294 294 294 295 295 296 297 297 298 298 298 298 299 299 300 300 300 299 298 296 294 293 292 292 292 292 292 292 292 292 293 294 294
240 247 254 261 266 271 275 279 281 283 285 287 288 290 291 292 292 292 292 292 292 291 291 292 292 292 292 292 292 292 292 293 293 293 294 294 295 295 295 295 295 296 297 297 298 298 299 299 300 300 301 301 300 299 298 296 294 292 291 291 290 289 289 290 290 289 290 290 290